Regional Weather Roundup
Issued by NWS

Home | Current Version | Previous Version | Text Only | Print | Product List | Glossary On
Versions: 1 2 3 4 5 6 7 8 9 10 11 12 13 14 15 16 17 18 19 20 21 22 23 24 25 26 27 28 29 30 31 32 33 34 35 36 37 38 39 40 41 42 43 44 45 46 47 48 49 50
195
ASCA44 KEWX 282220
RWRMX

LATIN AMERICA AND CARIBBEAN REGIONAL WEATHER ROUNDUP
NATIONAL WEATHER SERVICE AUSTIN/SAN ANTONIO TX
500 PM CDT THU JUL 28 2016

NOTE: "FAIR" INDICATED FEW OR NO CLOUDS BELOW 12,000 FEET WITH NO
SIGNIFICANT WEATHER AND/OR OBSTRUCTIONS TO VISIBILITY.

BAJA CALIFORNIA

CITY           SKY/WX    TMP DP  RH WIND       PRES   REMARKS
LORETO         CLOUDY    90  77  66 SE6       29.79F HX 102
LA PAZ         CLOUDY    90  66  45 NW10      29.83  HX  92
MEXICALI       SUNNY    108  63  23 SE18      29.71  HX 110
S.J. DEL CABO  CLOUDY    82  73  74 SE3       29.86F
TIJUANA        MOSUNNY   84  54  34 W14       29.89F

NORTHWESTERN MEXICO

CITY           SKY/WX    TMP DP  RH WIND       PRES   REMARKS
CULIACAN       PTSUNNY   86  77  74 S13       29.84  HX  97
DURANGO        CLOUDY    73  57  56 S9        30.15F
GUAYMAS        PTSUNNY   86  79  79 SW12      29.76  HX  99
HERMOSILLO     MOSUNNY   95  77  55 S6        29.81  HX 109
CD. JUAREZ     MOSUNNY   97  57  26 E7        29.97  HX  95
LOS MOCHIS     PTSUNNY   88  72  58 SW14      29.80F HX  94
OBREGON        PTSUNNY   88  73  62 W5        29.79  HX  96

NORTHEASTERN MEXICO

CITY           SKY/WX    TMP DP  RH WIND       PRES   REMARKS
CHIHUAHUA      PTSUNNY   77  63  61 SW6       30.07
MATAMOROS      PTSUNNY   93  72  49 SE17      29.90  HX 100
MONCLOVA       PTSUNNY   90  63  40 CALM      29.87F HX  90
MONTERREY      PTSUNNY   90  66  45 NE12      29.87F HX  92
NUEVO LAREDO   PTSUNNY  100  63  28 S8        29.83  HX 102
PIEDRAS NEGRAS   N/A    N/A N/A N/A MISG        N/A
REYNOSA        MOSUNNY   93  61  33 SE12G23   29.88  HX  93
SALTILLO       PTSUNNY   79  63  57 NE9       30.15F
TORREON        PTSUNNY   91  57  31 NE12      29.97F HX  90
CD. VICTORIA   PTSUNNY   91  66  43 E22       29.89  HX  94

WESTERN MEXICO

CITY           SKY/WX    TMP DP  RH WIND       PRES   REMARKS
AGUASCALIENTES MOSUNNY   73  54  49 CALM      30.19
COLIMA         PTSUNNY   84  66  54 CALM      29.95F
DEL BAJIO      CLOUDY    73  57  56 CALM      30.22F
GUADALAJARA    CLOUDY    72  59  64 SE6       30.14
MANZANILLO     MOSUNNY   90  79  70 SW12      29.80F HX 105
MAZATLAN       PTSUNNY   84  75  74 SW6       29.86F HX  92
P. VALLARTA    CLOUDY    88  79  74 NW3       29.84F HX 102
URUAPAN        PTSUNNY   68  63  83 CALM      30.14F
ZACATECAS      PTSUNNY   75  54  46 S10       30.21F

CENTRAL MEXICO

CITY           SKY/WX    TMP DP  RH WIND       PRES   REMARKS
CUERNAVACA     PTSUNNY   79  61  53 CALM      30.07F
MEXICO CITY    CLOUDY    64  48  55 NE9       30.30R
MORELIA        PTSUNNY   68  59  73 S14       30.17
POZA RICA      MOSUNNY   95  75  52 NE9       29.90F HX 107
PUEBLA         PTSUNNY   66  57  72 NE5       30.28F
QUERETARO      RAIN      73  59  60 E12       30.19F
S. LUIS POTOSI PTSUNNY   81  48  32 E12G23    30.14F
TAMPICO        PTSUNNY   88  75  66 E5        29.89F HX  97
TOLUCA         PTSUNNY   64  54  68 SE12      30.35F

SOUTHERN MEXICO

CITY           SKY/WX    TMP DP  RH WIND       PRES   REMARKS
ACAPULCO       PTSUNNY   88  77  70 SW8       29.78F HX 100
B. DE HUATULCO MOSUNNY   93  79  62 CALM      29.86  HX 110
OAXACA         CLOUDY    77  59  53 CALM      30.08F
P. ESCONDIDO   MOSUNNY   84  72  65 SW6       29.90S
VERACRUZ       PTSUNNY   86  73  66 E6        29.87S HX  93
ZIHUATANEJO    MOSUNNY   91  77  62 SW7       29.81F HX 105

YUCATAN PENINSULA

CITY           SKY/WX    TMP DP  RH WIND       PRES   REMARKS
CAMPECHE       TSTM      77  75  94 E9        29.87R
CANCUN         MOSUNNY   88  75  66 SE14      29.94R HX  97
CHETUMAL       PTSUNNY   88  77  70 SE12      29.88  HX 100
CD. DEL CARMEN MOSUNNY   86  77  74 N13       29.84  HX  97
COZUMEL        PTSUNNY   88  75  66 SE14      29.93F HX  97
MERIDA         TSTM      73  72  94 S6        29.95S
MINATITLAN     PTSUNNY   86  68  54 N21       29.78
TAPACHULA      PTSUNNY   90  75  62 W9        29.76S HX 100
TUX. GUTIERREZ PTSUNNY   86  70  58 W5        29.85F HX  90
VILLAHERMOSA   MOSUNNY   93  73  52 E12       29.82F HX 102

CENTRAL AMERICA

CITY           SKY/WX    TMP DP  RH WIND       PRES   REMARKS

CARIBBEAN

CITY           SKY/WX    TMP DP  RH WIND       PRES   REMARKS
ARUBA          MOSUNNY   86  77  74 E25       29.83S HX  97
CURACAO        MOSUNNY   84  77  79 E14       29.86S HX  94
KINGSTON       MOSUNNY   91  73  55 SE23      29.89S HX 100
NASSAU         MOSUNNY   86  75  70 E7        30.05R HX  95
SAN JUAN       MOSUNNY   86  75  70 NE12      29.98S HX  95
ST. CROIX      MOSUNNY   86  75  70 NE8       29.97  HX  95
ST. MAARTEN    MOSUNNY   84  75  74 E12       29.97R HX  92
ST. THOMAS     PTSUNNY   88  79  74 NE7       29.97  HX 102

$$





USA.gov is the U.S. government's official web portal to all federal, state and local government web resources and services.